Temperature
16 16 16 16 16 16 16 16 16 16 16 16 15 15 15 15 15 15 15 15 15 15 15 15 15 15 15 14 14 14 14 14 13 12 12 12 12 11 11 11 11 11 11
16 16 15 15 16 16 16 16 16 15 16 16 16 16 15 15 15 15 15 15 15 15 15 15 15 15 15 14 14 14 14 14 14 13 12 12 11 11 11 11 11 11 11
15 15 15 15 15 15 15 15 15 15 15 15 16 16 15 15 15 15 15 15 15 15 15 15 15 15 15 14 14 14 14 14 13 13 12 12 11 11 11 11 11 10 11
15 15 15 15 15 15 15 15 15 15 15 16 16 16 16 16 15 15 15 15 15 15 15 15 15 15 15 14 14 14 14 14 13 13 13 12 11 11 11 11 10 10 10
15 15 15 15 15 15 15 15 15 15 15 15 15 16 15 15 15 15 15 15 15 15 15 15 15 15 15 14 14 14 14 14 13 13 13 12 11 11 11 11 11 10 10
15 15 15 15 15 15 15 15 15 15 15 15 15 15 15 15 15 15 15 15 15 15 15 15 15 15 15 14 14 14 14 14 13 13 13 12 12 12 11 11 11 10 10
15 15 15 15 14 14 14 15 15 15 15 15 15 15 15 15 15 15 15 15 15 15 15 15 15 14 14 14 14 14 13 13 13 13 13 12 12 12 11 11 11 10 10
15 15 14 14 14 14 14 14 14 14 14 14 14 14 15 15 15 15 15 15 15 15 15 14 14 14 14 14 14 13 13 13 13 12 12 12 12 12 11 11 11 10 10
15 14 14 14 14 14 14 14 14 14 14 14 14 14 14 14 14 14 14 14 14 14 14 14 14 14 14 14 13 13 13 13 12 12 12 12 12 12 11 11 11 10 10
14 14 14 14 14 14 14 14 14 14 14 14 14 14 14 14 14 14 14 14 14 14 14 14 14 14 14 13 13 13 13 13 12 12 12 12 12 11 11 11 11 10 10
14 14 14 14 13 13 13 13 13 13 13 13 13 13 13 13 14 13 14 13 13 13 14 14 13 13 13 13 13 13 13 12 12 12 12 12 11 11 11 11 10 10 10
14 14 13 13 13 13 13 13 13 13 13 13 13 13 13 13 13 13 13 13 13 13 13 13 13 13 13 13 12 12 12 12 12 12 12 11 11 11 11 11 10 10 10
13 13 13 13 13 13 13 13 13 13 13 13 13 12 13 13 13 13 13 13 13 13 13 13 13 13 13 12 12 12 12 12 11 11 11 11 11 11 10 10 10 9 9
13 13 12 12 12 12 12 12 12 12 12 12 12 12 12 13 13 13 13 13 13 13 12 12 12 12 12 12 12 12 12 11 11 11 11 11 11 10 10 10 9 9 9
12 12 12 12 12 12 12 12 12 12 12 12 13 12 12 12 13 13 13 12 12 12 12 12 12 12 12 12 12 11 11 11 11 11 10 10 10 10 10 9 9 9 9
11 11 11 11 11 12 12 12 12 12 12 12 12 12 12 12 12 12 12 12 12 12 12 12 12 12 12 12 11 11 11 11 11 10 10 10 10 10 10 9 9 9 9
11 11 11 11 11 11 11 12 12 12 12 12 12 12 12 12 12 12 12 12 12 11 11 12 11 12 11 11 11 11 11 11 11 10 10 10 10 10 9 9 9 8 8
10 11 11 11 11 11 11 11 11 11 11 11 11 11 11 12 11 11 11 11 11 11 11 11 11 11 11 11 11 11 11 11 10 10 10 10 10 9 9 9 9 8 8
10 10 10 10 10 11 11 11 11 11 11 11 11 11 11 11 11 11 11 11 11 11 11 11 11 11 11 11 11 11 10 10 10 10 10 10 10 9 9 9 8 8 8
10 10 10 10 10 10 10 10 10 10 10 10 10 11 10 10 10 10 10 10 10 10 10 11 11 11 11 11 11 10 10 10 10 10 10 10 9 9 9 8 8 8 7
9 9 9 9 9 9 10 10 10 10 10 10 10 10 10 10 10 10 10 10 10 10 10 10 10 10 10 10 10 10 10 10 10 10 10 10 9 9 9 8 8 7 7
9 8 8 9 9 9 9 9 9 9 9 9 9 9 10 10 9 10 9 9 10 10 10 10 10 10 10 10 10 10 10 9 9 9 9 9 9 9 8 8 8 7 7
8 8 8 8 8 9 9 9 9 9 9 9 9 9 9 9 9 9 9 9 9 9 9 9 9 10 9 9 9 9 9 9 9 9 9 9 8 8 8 8 7 7 7
7 7 8 8 8 8 8 8 8 8 8 8 8 8 8 9 9 9 9 9 9 9 9 9 9 9 9 9 9 9 9 9 9 8 8 8 8 8 8 7 7 7 7
7 7 7 7 7 7 8 8 8 8 8 8 8 8 8 8 8 8 8 8 8 8 8 8 8 8 8 8 8 8 8 8 8 8 8 8 8 8 7 7 7 7 6
7 7 7 7 7 7 7 7 7 7 7 7 7 7 7 8 8 8 8 8 8 8 7 7 8 8 8 8 8 8 8 8 8 8 8 7 7 7 7 7 7 6 6
Wind_Speed
2 1 1 1 1 2 2 2 2 3 4 5 5 5 6 5 5 5 5 5 4 4 4 4 3 3 3 2 2 2 3 4 5 3 3 4 5 5 8 9 9 9 8
2 2 2 1 2 2 2 3 3 3 4 5 5 5 5 5 5 6 5 5 5 4 4 4 4 4 4 3 2 3 3 4 6 5 3 3 4 5 6 6 7 7 7
2 3 3 2 3 3 3 2 2 2 3 4 4 4 5 6 6 6 6 6 6 5 5 5 5 6 5 3 4 3 3 4 5 5 4 3 3 4 4 3 5 6 7
3 3 4 3 3 2 2 2 3 3 2 2 3 4 4 5 5 6 5 6 5 5 4 4 4 6 6 5 4 4 4 5 5 5 4 3 3 3 4 2 2 1 2
3 3 4 4 3 2 2 3 2 3 3 2 2 2 2 3 4 4 4 5 5 5 5 4 4 6 8 6 5 5 5 4 5 5 4 3 3 3 3 3 3 2 1
4 4 4 3 3 3 3 3 3 3 3 3 3 2 1 1 3 4 4 3 4 5 5 5 6 7 8 9 9 8 7 6 5 5 4 5 4 4 3 3 3 3 1
5 5 4 4 4 4 3 3 3 3 2 2 3 3 2 2 3 4 4 3 3 3 4 5 5 6 7 6 7 8 6 6 6 5 5 5 5 5 5 4 3 3 3
5 5 5 4 4 3 3 3 3 3 3 3 3 3 3 3 4 4 4 3 2 3 3 4 5 6 6 6 6 5 4 3 3 4 4 4 5 6 6 5 4 3 1
5 5 5 5 4 4 4 4 4 3 4 4 4 4 4 3 5 5 5 3 3 3 3 3 5 6 8 9 6 5 4 2 4 7 7 7 8 8 7 4 3 4 2
4 4 5 5 5 5 5 4 3 3 4 4 5 5 5 4 5 7 7 3 4 4 3 4 6 7 10 9 6 5 5 3 4 4 5 5 6 7 7 5 5 4 2
3 3 4 5 5 5 4 3 3 4 4 4 5 5 5 5 7 8 8 4 4 4 4 4 4 10 11 9 6 4 5 5 5 4 4 3 3 3 3 3 4 4 3
2 3 3 4 5 4 4 3 3 4 4 4 4 4 4 4 6 8 9 7 4 4 4 4 5 11 11 9 6 5 7 6 4 4 3 3 2 2 2 3 4 3 2
2 2 3 4 4 4 5 4 4 4 4 4 4 4 4 4 6 9 9 8 7 4 3 6 9 11 10 7 6 7 6 4 4 3 4 3 3 3 3 3 3 4 3
2 3 3 4 4 4 4 4 4 5 5 4 5 5 4 4 5 5 5 5 6 5 4 6 9 10 7 6 5 5 4 4 4 4 4 3 3 3 3 2 2 2 2
4 4 4 3 4 4 4 4 5 5 6 6 5 5 5 5 6 8 7 6 5 5 6 5 4 5 5 4 4 4 4 3 4 3 3 3 3 3 2 2 3 3 2
4 3 3 3 3 3 3 3 4 5 6 6 5 4 4 5 6 9 9 8 9 9 7 6 6 6 6 6 6 5 5 5 4 4 4 4 4 4 3 3 3 3 4
4 4 3 2 3 3 4 4 4 3 4 5 6 6 6 5 6 8 8 7 8 9 6 6 6 7 6 6 6 6 6 5 5 5 5 5 5 5 4 4 4 3 3
4 3 3 2 3 3 4 4 4 4 4 3 4 7 7 7 8 8 8 6 5 6 5 6 6 7 7 7 7 6 5 5 5 5 5 5 5 5 5 5 5 4 4
3 3 3 2 3 3 3 3 4 4 4 3 2 3 6 7 7 7 9 6 6 7 7 6 6 6 6 6 6 6 6 6 6 6 6 6 6 5 5 5 5 6 5
3 3 3 2 3 3 3 3 3 3 3 3 4 4 4 4 4 5 6 6 6 6 6 6 6 6 6 6 6 6 6 6 6 6 6 6 6 6 6 6 6 5 5
2 2 3 3 3 3 3 3 3 3 3 3 3 3 5 5 6 6 7 6 6 6 6 6 6 6 6 5 6 7 7 6 6 6 6 6 6 5 5 5 5 5 4
2 2 3 3 3 3 3 3 3 3 3 3 3 3 5 5 5 5 6 6 6 6 5 5 5 5 5 6 6 7 7 6 6 6 6 6 6 6 5 5 5 5 5
2 2 2 2 2 3 3 3 3 3 3 4 4 3 4 4 5 5 5 5 5 5 4 4 5 5 5 5 6 6 7 7 7 7 7 7 6 6 6 6 6 6 6
2 2 3 2 2 2 2 3 3 3 3 3 3 3 4 4 4 5 5 5 4 4 4 4 4 5 6 5 5 6 7 7 8 8 8 7 7 6 6 6 6 7 7
2 3 3 3 3 3 3 3 3 3 3 3 3 3 3 4 4 4 4 4 4 4 4 4 4 5 6 6 6 6 8 9 9 8 8 7 7 7 7 6 6 6 6
3 3 3 3 2 2 3 3 3 3 3 3 3 4 4 4 4 4 4 3 4 4 5 4 5 6 6 6 7 8 9 9 9 9 8 6 6 7 6 6 7 6 6
Wind_Direction
201 221 233 194 208 192 181 175 194 191 181 175 185 187 183 187 180 164 166 169 172 164 167 167 171 156 137 133 128 131 126 126 129 132 124 130 122 116 120 125 121 116 109
214 198 212 206 204 200 195 191 205 197 188 173 187 192 185 183 177 165 172 171 171 173 174 161 161 150 142 140 134 131 134 134 135 136 139 138 132 132 138 144 139 131 127
213 204 208 218 219 207 213 200 199 205 195 180 182 194 189 184 176 171 176 175 174 178 176 171 163 148 151 154 150 149 146 136 130 136 143 141 139 138 132 140 133 136 141
205 210 209 210 216 218 226 217 204 210 200 197 186 185 193 185 178 175 172 175 174 169 164 157 161 157 157 158 158 153 139 130 132 136 141 145 151 153 136 142 125 131 137
205 217 218 207 198 206 216 227 214 205 189 199 191 173 179 173 175 166 168 172 167 161 160 159 146 130 135 142 145 140 136 137 142 142 148 149 157 158 166 169 155 152 149
208 220 212 207 199 203 214 215 206 208 187 185 176 148 138 155 133 144 158 170 168 165 162 149 141 128 126 122 123 128 135 147 156 153 162 168 176 178 172 168 163 156 199
217 221 207 202 208 210 211 207 199 197 182 178 173 163 148 142 151 162 161 155 157 162 155 149 151 146 135 132 124 123 124 135 152 157 166 179 179 181 169 174 179 172 189
220 218 209 199 195 198 204 202 203 196 179 179 173 164 155 171 175 169 175 177 154 155 153 152 143 143 143 138 137 138 130 121 143 147 161 173 168 168 169 170 169 151 147
230 215 204 195 189 194 208 213 211 193 181 179 177 175 175 184 190 178 171 180 173 176 166 153 145 142 146 144 144 146 141 130 107 106 115 122 136 145 145 131 135 138 162
235 222 208 193 190 199 208 220 211 193 190 181 179 183 185 185 192 182 179 186 186 183 171 151 142 143 145 144 153 151 153 155 134 107 96 99 121 138 146 147 156 160 164
240 219 210 192 194 202 207 212 203 193 191 188 182 182 184 190 188 182 181 193 188 179 170 159 156 149 150 155 151 155 158 148 147 143 138 134 130 135 139 142 149 158 172
260 213 203 195 200 203 194 209 202 187 189 191 189 190 188 182 175 187 189 203 190 173 173 164 163 159 159 162 164 157 145 138 140 142 146 158 166 169 168 152 147 136 144
269 215 204 205 204 188 190 203 200 189 193 198 197 201 201 183 179 183 192 202 198 178 167 161 158 162 162 165 169 165 153 149 154 160 173 185 184 175 156 141 130 124 107
264 237 217 206 200 195 196 196 195 194 197 200 203 205 205 188 179 185 190 195 188 179 171 154 154 157 157 158 158 168 172 174 171 179 179 177 162 153 153 152 146 141 125
259 245 232 221 203 202 201 203 199 199 197 199 208 203 203 202 194 184 182 189 184 181 161 151 152 159 169 173 176 179 178 177 183 183 176 169 164 158 166 164 160 159 169
275 256 233 224 212 206 200 200 202 195 193 195 197 203 207 191 174 174 179 180 176 172 163 166 173 176 183 184 183 187 191 192 191 185 178 175 175 174 176 177 178 180 187
271 268 254 229 218 214 211 202 197 200 202 206 205 207 207 193 175 177 182 178 177 170 175 182 184 185 188 189 190 193 198 196 187 182 182 182 181 182 181 186 190 191 198
267 262 258 239 222 222 222 208 195 194 200 217 217 215 207 196 186 183 173 156 174 184 195 193 193 191 191 193 194 194 194 190 186 184 183 184 184 184 188 193 196 198 202
268 250 237 236 228 224 225 201 194 197 197 198 191 203 202 192 186 183 169 184 194 199 203 205 203 198 196 195 191 190 191 191 188 185 188 190 191 189 194 198 200 205 202
248 241 242 234 230 215 211 197 192 191 194 195 201 199 177 165 176 184 191 200 205 207 204 205 206 203 197 194 189 188 193 192 189 189 192 192 193 194 198 199 198 200 205
236 234 240 235 228 225 210 199 198 194 199 203 203 195 178 186 194 193 197 204 205 209 210 206 205 204 198 192 189 190 191 192 191 190 191 194 194 198 202 200 201 199 195
243 230 235 230 224 218 214 210 205 201 199 198 202 203 189 190 197 200 202 207 210 213 212 205 205 203 199 193 191 191 193 193 193 193 195 197 199 201 197 198 197 195 190
234 235 242 243 236 218 217 216 210 205 205 202 201 200 198 203 203 205 207 207 207 207 208 206 205 203 201 200 198 196 196 199 198 197 197 198 198 199 199 200 199 196 197
239 232 237 237 233 232 228 220 217 211 207 206 208 210 209 208 208 210 212 207 203 201 202 208 207 205 199 201 204 206 208 207 200 198 198 198 198 199 199 199 199 200 199
248 240 236 231 229 227 232 235 231 219 208 208 211 214 218 217 212 212 211 206 201 204 207 210 217 214 207 202 203 207 206 204 203 199 197 195 195 195 195 196 198 197 198
244 238 229 227 229 233 233 236 238 235 224 220 217 214 215 218 215 210 207 201 203 209 213 213 215 213 212 210 209 203 197 199 202 200 196 193 196 198 194 197 195 195 193
Height
1523 1523 1524 1525 1525 1526 1527 1528 1529 1530 1531 1532 1534 1535 1536 1538 1540 1541 1543 1544 1546 1547 1548 1550 1551 1552 1553 1554 1555 1556 1557 1558 1559 1560 1562 1562 1563 1563 1563 1563 1563 1562 1562
1521 1522 1522 1523 1523 1524 1525 1526 1527 1528 1530 1531 1532 1533 1535 1536 1538 1539 1541 1542 1544 1545 1547 1548 1549 1551 1552 1553 1554 1555 1556 1557 1558 1559 1560 1561 1562 1562 1563 1563 1563 1562 1562
1519 1519 1520 1521 1521 1522 1523 1524 1525 1526 1527 1529 1530 1531 1533 1534 1536 1537 1539 1540 1542 1543 1545 1546 1548 1549 1550 1551 1553 1554 1555 1556 1557 1558 1559 1560 1561 1562 1562 1563 1563 1562 1562
1516 1517 1518 1518 1519 1520 1521 1522 1523 1524 1525 1527 1528 1529 1531 1532 1534 1535 1537 1538 1540 1542 1543 1545 1546 1547 1548 1550 1551 1552 1553 1555 1556 1557 1558 1559 1560 1561 1561 1562 1562 1562 1562
1513 1514 1515 1516 1516 1517 1518 1520 1521 1522 1523 1524 1526 1527 1528 1530 1531 1533 1534 1536 1538 1540 1541 1543 1544 1546 1547 1548 1549 1550 1552 1553 1554 1555 1556 1557 1558 1559 1560 1560 1561 1561 1561
1510 1511 1512 1513 1513 1514 1515 1517 1518 1519 1520 1522 1523 1524 1525 1527 1528 1530 1532 1534 1536 1537 1539 1540 1542 1544 1545 1546 1548 1549 1550 1551 1552 1553 1554 1555 1556 1557 1558 1558 1559 1559 1559
1507 1508 1508 1509 1510 1511 1512 1513 1515 1516 1518 1518 1520 1521 1523 1524 1526 1528 1530 1531 1533 1535 1537 1538 1539 1541 1543 1544 1545 1547 1548 1549 1551 1551 1552 1553 1554 1554 1555 1556 1557 1557 1558
1503 1504 1505 1506 1507 1508 1509 1510 1511 1513 1514 1515 1517 1518 1520 1521 1523 1525 1527 1529 1531 1532 1534 1536 1537 1538 1540 1542 1543 1544 1545 1547 1548 1549 1550 1551 1552 1553 1553 1554 1555 1556 1556
1500 1500 1501 1502 1503 1504 1505 1506 1508 1509 1511 1512 1514 1515 1517 1518 1520 1522 1524 1526 1527 1529 1531 1533 1534 1536 1537 1539 1540 1541 1542 1544 1546 1547 1548 1549 1550 1551 1551 1552 1552 1553 1553
1496 1496 1497 1498 1499 1500 1501 1503 1504 1506 1507 1509 1511 1512 1514 1515 1517 1519 1520 1522 1524 1526 1528 1530 1531 1533 1534 1536 1537 1538 1540 1541 1543 1544 1545 1547 1548 1548 1549 1549 1550 1550 1550
1492 1492 1493 1494 1495 1496 1498 1499 1501 1502 1504 1505 1507 1509 1510 1511 1513 1515 1516 1518 1520 1522 1524 1526 1528 1530 1531 1533 1534 1536 1537 1539 1540 1541 1542 1544 1545 1545 1546 1547 1547 1548 1548
1487 1488 1488 1490 1491 1492 1493 1495 1497 1498 1499 1501 1503 1505 1506 1507 1509 1510 1512 1515 1517 1519 1520 1522 1525 1526 1528 1530 1532 1533 1534 1536 1537 1538 1539 1540 1541 1542 1543 1544 1545 1545 1546
1483 1483 1484 1485 1487 1488 1489 1490 1492 1494 1495 1497 1499 1500 1502 1503 1505 1507 1509 1511 1513 1515 1517 1519 1521 1523 1525 1527 1528 1530 1531 1532 1533 1535 1536 1537 1538 1539 1540 1541 1541 1542 1542
1479 1480 1480 1481 1482 1483 1484 1486 1488 1489 1491 1493 1494 1496 1498 1499 1501 1502 1504 1507 1509 1511 1513 1515 1518 1519 1521 1523 1525 1526 1528 1529 1530 1531 1532 1534 1535 1536 1536 1537 1538 1538 1539
1476 1476 1476 1477 1478 1479 1480 1481 1483 1485 1487 1489 1490 1492 1494 1495 1497 1499 1500 1502 1504 1506 1509 1511 1513 1515 1516 1518 1520 1522 1524 1525 1527 1528 1529 1530 1531 1532 1533 1533 1534 1534 1535
1471 1472 1472 1473 1474 1475 1476 1477 1479 1481 1483 1485 1487 1488 1490 1491 1493 1495 1496 1498 1500 1502 1504 1506 1508 1510 1512 1514 1515 1517 1519 1521 1522 1524 1525 1526 1527 1528 1529 1529 1530 1530 1530
1467 1467 1468 1469 1470 1471 1472 1473 1474 1477 1478 1480 1482 1484 1485 1487 1489 1491 1493 1494 1496 1498 1499 1501 1503 1505 1507 1509 1511 1513 1514 1516 1518 1519 1520 1521 1523 1523 1524 1525 1525 1526 1526
1462 1462 1463 1464 1465 1466 1467 1469 1470 1472 1473 1475 1477 1479 1481 1483 1484 1486 1488 1490 1491 1493 1494 1496 1498 1500 1502 1504 1506 1508 1510 1512 1513 1514 1515 1517 1518 1518 1519 1520 1521 1522 1522
1456 1457 1458 1459 1460 1461 1463 1464 1466 1467 1469 1470 1472 1474 1476 1478 1479 1481 1483 1484 1485 1487 1489 1491 1493 1495 1497 1499 1501 1503 1505 1506 1508 1509 1510 1511 1512 1513 1514 1515 1516 1517 1518
1451 1452 1453 1455 1456 1457 1458 1459 1461 1463 1465 1466 1467 1469 1471 1472 1473 1475 1477 1478 1480 1481 1483 1485 1487 1490 1492 1494 1495 1497 1499 1501 1502 1503 1505 1506 1507 1508 1509 1510 1511 1512 1512
1446 1447 1449 1450 1452 1453 1454 1455 1457 1458 1460 1462 1463 1464 1466 1467 1468 1470 1471 1473 1474 1476 1478 1480 1482 1484 1486 1488 1490 1491 1493 1494 1496 1497 1499 1500 1502 1503 1504 1505 1506 1506 1507
1442 1443 1445 1446 1448 1449 1450 1452 1453 1454 1456 1457 1459 1460 1461 1462 1463 1464 1466 1467 1469 1471 1473 1475 1476 1478 1480 1482 1484 1485 1487 1489 1490 1492 1493 1494 1496 1497 1498 1499 1500 1501 1502
1438 1439 1441 1442 1443 1445 1446 1448 1449 1450 1451 1453 1454 1455 1456 1457 1458 1459 1461 1462 1464 1466 1467 1469 1471 1472 1474 1476 1478 1480 1481 1482 1484 1486 1487 1489 1490 1491 1492 1493 1494 1495 1496
1435 1436 1437 1438 1439 1441 1442 1443 1445 1446 1447 1448 1449 1450 1451 1452 1453 1454 1456 1457 1459 1460 1462 1463 1465 1466 1468 1470 1472 1474 1475 1477 1479 1480 1481 1483 1484 1485 1486 1488 1488 1490 1490
1431 1432 1433 1434 1435 1437 1438 1439 1441 1442 1442 1443 1444 1445 1446 1447 1449 1450 1451 1452 1454 1455 1456 1458 1459 1461 1462 1464 1466 1467 1469 1471 1472 1474 1475 1477 1478 1479 1480 1481 1482 1484 1484
1428 1429 1430 1431 1432 1433 1434 1435 1436 1437 1438 1439 1439 1440 1441 1442 1443 1444 1446 1447 1448 1449 1451 1452 1453 1455 1456 1458 1460 1461 1463 1465 1466 1468 1469 1470 1471 1472 1474 1475 1476 1477 1478